When you browse on this site, cookies collect data to enhance your experience and personalize the content and advertising you see.
Visit our Privacy Policy to learn more. By continuing to use the site, you agree to this use of cookies and data.
  • In Österreich
  • Länderverzeichnis
  • Für 7 Tage
  • Wassertemperatur
  • Satellitenkarten
  • Wetterkarte
  • News
  • Widgets
  • user-avatar
    Anmelden

    Stündliche Wetter Lubsko

    Heute, 16 Januar, Mittwoch

    Zeit Temperatur Niederschläge Wind Luftdruck Luftfeuchtigkeit
    00:00 +2°C° 0.6 mm 8 m/S 749 mmHg 86%
    01:00 +3°C° 0 mm 6 m/S 749 mmHg 87%
    02:00 +4°C° 0.4 mm 7 m/S 749 mmHg 86%
    03:00 +4°C° 0.4 mm 7 m/S 749 mmHg 86%
    04:00 +4°C° 0.4 mm 7 m/S 749 mmHg 86%
    05:00 +4°C° 0.1 mm 7 m/S 749 mmHg 85%
    06:00 +4°C° 0.1 mm 7 m/S 749 mmHg 85%
    07:00 +4°C° 0.1 mm 6 m/S 750 mmHg 84%
    08:00 +4°C° 0 mm 6 m/S 750 mmHg 83%
    09:00 +4°C° 0 mm 6 m/S 750 mmHg 83%
    10:00 +3°C° 0 mm 6 m/S 750 mmHg 83%
    11:00 +4°C° 0 mm 6 m/S 750 mmHg 81%
    12:00 +5°C° 0 mm 5 m/S 750 mmHg 80%
    13:00 +5°C° 0 mm 5 m/S 750 mmHg 79%
    14:00 +5°C° 0 mm 5 m/S 749 mmHg 79%
    15:00 +5°C° 0 mm 5 m/S 749 mmHg 79%
    16:00 +5°C° 0 mm 4 m/S 749 mmHg 79%
    17:00 +5°C° 0 mm 4 m/S 749 mmHg 79%
    18:00 +4°C° 0 mm 4 m/S 748 mmHg 79%
    19:00 +4°C° 0 mm 4 m/S 748 mmHg 79%
    20:00 +3°C° 0 mm 4 m/S 747 mmHg 79%
    21:00 +3°C° 0 mm 4 m/S 747 mmHg 78%
    22:00 +3°C° 0 mm 4 m/S 747 mmHg 77%
    23:00 +2°C° 0 mm 5 m/S 746 mmHg 75%

    Morgen, 17 Januar, Donnerstag

    Zeit Temperatur Niederschläge Wind Luftdruck Luftfeuchtigkeit
    00:00 +2°C° 0 mm 5 m/S 746 mmHg 73%
    01:00 +2°C° 0 mm 5 m/S 745 mmHg 70%
    02:00 +2°C° 0 mm 5 m/S 745 mmHg 69%
    03:00 +2°C° 0 mm 6 m/S 744 mmHg 69%
    04:00 +2°C° 0 mm 6 m/S 744 mmHg 68%
    05:00 +2°C° 0 mm 6 m/S 744 mmHg 71%
    06:00 +2°C° 0 mm 7 m/S 744 mmHg 74%
    07:00 +2°C° 0 mm 7 m/S 744 mmHg 77%
    08:00 +3°C° 0 mm 7 m/S 744 mmHg 77%
    09:00 +3°C° 0 mm 7 m/S 744 mmHg 76%
    10:00 +4°C° 0 mm 6 m/S 745 mmHg 76%
    11:00 +4°C° 0 mm 7 m/S 745 mmHg 73%
    12:00 +5°C° 0 mm 7 m/S 744 mmHg 69%
    13:00 +5°C° 0 mm 7 m/S 744 mmHg 65%
    14:00 +5°C° 0 mm 6 m/S 744 mmHg 66%
    15:00 +4°C° 0 mm 6 m/S 743 mmHg 68%
    16:00 +5°C° 0 mm 5 m/S 743 mmHg 69%
    17:00 +4°C° 0.6 mm 6 m/S 743 mmHg 70%
    18:00 +3°C° 0.6 mm 6 m/S 744 mmHg 70%
    19:00 +3°C° 0.6 mm 7 m/S 744 mmHg 71%
    20:00 +2°C° 0 mm 7 m/S 745 mmHg 69%
    21:00 +1°C° 0 mm 6 m/S 746 mmHg 67%
    22:00 -1°C° 0 mm 6 m/S 746 mmHg 65%
    23:00 -1°C° 0 mm 6 m/S 746 mmHg 67%

    übermorgen, 18 Januar, Freitag

    Zeit Temperatur Niederschläge Wind Luftdruck Luftfeuchtigkeit
    00:00 -2°C° 0 mm 7 m/S 747 mmHg 69%
    01:00 -2°C° 0 mm 7 m/S 747 mmHg 71%
    02:00 -2°C° 0.1 mm 7 m/S 747 mmHg 68%
    03:00 -2°C° 0.1 mm 7 m/S 748 mmHg 66%
    04:00 -4°C° 0.1 mm 8 m/S 748 mmHg 64%
    05:00 -3°C° 0 mm 7 m/S 749 mmHg 67%
    06:00 -3°C° 0 mm 6 m/S 750 mmHg 70%
    07:00 -3°C° 0 mm 6 m/S 751 mmHg 73%
    08:00 -2°C° 0.1 mm 6 m/S 752 mmHg 75%
    09:00 -2°C° 0.1 mm 6 m/S 753 mmHg 76%
    10:00 -2°C° 0.1 mm 6 m/S 754 mmHg 78%
    11:00 0°C° 0.1 mm 5 m/S 755 mmHg 74%
    12:00 0°C° 0.1 mm 5 m/S 756 mmHg 70%
    13:00 0°C° 0.1 mm 4 m/S 756 mmHg 66%
    14:00 +1°C° 0 mm 3 m/S 757 mmHg 70%
    15:00 0°C° 0 mm 3 m/S 757 mmHg 74%
    16:00 +1°C° 0 mm 2 m/S 757 mmHg 78%
    17:00 -1°C° 0 mm 2 m/S 758 mmHg 80%
    18:00 -2°C° 0 mm 2 m/S 758 mmHg 83%
    19:00 -2°C° 0 mm 2 m/S 758 mmHg 86%
    20:00 -2°C° 0 mm 2 m/S 758 mmHg 85%
    21:00 -2°C° 0 mm 2 m/S 759 mmHg 84%
    22:00 -2°C° 0 mm 2 m/S 759 mmHg 82%
    23:00 -3°C° 0 mm 2 m/S 759 mmHg 81%

    19 Januar, Samstag

    Zeit Temperatur Niederschläge Wind Luftdruck Luftfeuchtigkeit
    00:00 -3°C° 0 mm 2 m/S 759 mmHg 80%
    01:00 -3°C° 0 mm 2 m/S 759 mmHg 79%
    02:00 -3°C° 0 mm 2 m/S 759 mmHg 77%
    03:00 -3°C° 0 mm 2 m/S 759 mmHg 76%
    04:00 -1°C° 0 mm 1 m/S 758 mmHg 75%
    05:00 -1°C° 0 mm 1 m/S 758 mmHg 74%
    06:00 -1°C° 0 mm 1 m/S 758 mmHg 73%
    07:00 0°C° 0 mm 1 m/S 758 mmHg 72%
    08:00 0°C° 0 mm 1 m/S 759 mmHg 69%
    09:00 +1°C° 0 mm 1 m/S 759 mmHg 66%
    10:00 +1°C° 0 mm 1 m/S 759 mmHg 63%
    11:00 +2°C° 0 mm 1 m/S 759 mmHg 57%
    12:00 +3°C° 0 mm 1 m/S 758 mmHg 52%
    13:00 +3°C° 0 mm 0 m/S 758 mmHg 47%
    14:00 +3°C° 0 mm 1 m/S 758 mmHg 50%
    15:00 +2°C° 0 mm 1 m/S 758 mmHg 54%
    16:00 +2°C° 0 mm 1 m/S 757 mmHg 57%
    17:00 +1°C° 0 mm 1 m/S 757 mmHg 59%
    18:00 0°C° 0 mm 1 m/S 758 mmHg 62%
    19:00 0°C° 0 mm 1 m/S 758 mmHg 64%
    20:00 0°C° 0 mm 1 m/S 758 mmHg 65%
    21:00 -1°C° 0 mm 1 m/S 758 mmHg 66%
    22:00 -1°C° 0 mm 1 m/S 758 mmHg 67%
    23:00 -1°C° 0 mm 1 m/S 758 mmHg 68%

    20 Januar, Sonntag

    Zeit Temperatur Niederschläge Wind Luftdruck Luftfeuchtigkeit
    00:00 -1°C° 0 mm 1 m/S 758 mmHg 69%
    01:00 -1°C° 0 mm 1 m/S 758 mmHg 70%
    02:00 -1°C° 0 mm 1 m/S 758 mmHg 71%
    03:00 -1°C° 0 mm 1 m/S 758 mmHg 71%
    04:00 -1°C° 0 mm 1 m/S 758 mmHg 72%
    05:00 -1°C° 0 mm 1 m/S 758 mmHg 72%
    06:00 -2°C° 0 mm 1 m/S 758 mmHg 72%
    07:00 -2°C° 0 mm 1 m/S 759 mmHg 73%
    08:00 -2°C° 0 mm 0 m/S 759 mmHg 69%
    09:00 -1°C° 0 mm 0 m/S 759 mmHg 65%
    10:00 0°C° 0 mm 0 m/S 760 mmHg 61%
    11:00 0°C° 0 mm 0 m/S 760 mmHg 57%
    12:00 +1°C° 0 mm 0 m/S 760 mmHg 53%
    13:00 +3°C° 0 mm 1 m/S 760 mmHg 49%
    14:00 +2°C° 0 mm 1 m/S 760 mmHg 53%
    15:00 +1°C° 0 mm 1 m/S 760 mmHg 58%
    16:00 +1°C° 0 mm 1 m/S 760 mmHg 62%
    17:00 0°C° 0 mm 1 m/S 761 mmHg 66%
    18:00 -1°C° 0 mm 1 m/S 761 mmHg 70%
    19:00 -1°C° 0 mm 1 m/S 762 mmHg 75%
    20:00 -1°C° 0 mm 1 m/S 762 mmHg 80%
    21:00 -1°C° 0 mm 1 m/S 763 mmHg 85%
    22:00 -2°C° 0 mm 1 m/S 763 mmHg 91%
    23:00 -2°C° 0 mm 1 m/S 764 mmHg 91%

    21 Januar, Montag

    Zeit Temperatur Niederschläge Wind Luftdruck Luftfeuchtigkeit
    00:00 -2°C° 0 mm 1 m/S 764 mmHg 91%
    01:00 -2°C° 0 mm 1 m/S 764 mmHg 92%
    02:00 -2°C° 0 mm 1 m/S 765 mmHg 90%
    03:00 -2°C° 0 mm 1 m/S 765 mmHg 87%
    04:00 -2°C° 0 mm 1 m/S 765 mmHg 85%
    05:00 -3°C° 0 mm 1 m/S 766 mmHg 84%
    06:00 -3°C° 0 mm 1 m/S 766 mmHg 82%
    07:00 -3°C° 0 mm 1 m/S 766 mmHg 80%
    08:00 -3°C° 0 mm 0 m/S 767 mmHg 76%
    09:00 -2°C° 0 mm 0 m/S 767 mmHg 71%
    10:00 -2°C° 0 mm 0 m/S 767 mmHg 66%
    11:00 -1°C° 0 mm 0 m/S 767 mmHg 62%
    12:00 0°C° 0 mm 0 m/S 767 mmHg 58%
    13:00 0°C° 0 mm 0 m/S 767 mmHg 54%
    14:00 0°C° 0 mm 0 m/S 767 mmHg 56%
    15:00 -1°C° 0 mm 0 m/S 767 mmHg 59%
    16:00 -2°C° 0 mm 0 m/S 767 mmHg 61%
    17:00 -2°C° 0 mm 0 m/S 767 mmHg 63%
    18:00 -2°C° 0 mm 1 m/S 767 mmHg 66%
    19:00 -2°C° 0 mm 1 m/S 767 mmHg 68%
    20:00 -2°C° 0 mm 1 m/S 767 mmHg 69%
    21:00 -2°C° 0 mm 1 m/S 767 mmHg 69%
    22:00 -3°C° 0 mm 1 m/S 767 mmHg 70%
    23:00 -3°C° 0 mm 1 m/S 766 mmHg 70%
    Mehr zeigen